Cumberland, WI

11:23 PM CDT on April 19, 2018 (GMT -0500)
Cumberland Municipal

Weather History for KUBE - April, 2014

Change the Weather History Date:

Tuesday, April 1, 2014

  Actual Average (KRPD) Record (KRPD)
Temperature  
Mean Temperature 27 °F -  
Max Temperature 35 °F 44 °F 75 °F (2015)
Min Temperature 19 °F 27 °F 3 °F (2018)
Degree Days  
Heating Degree Days 38    
Moisture  
Dew Point 20 °F    
Average Humidity 78    
Maximum Humidity 93    
Minimum Humidity 60    
Precipitation  
Precipitation 0.00 in - - ()
Sea Level Pressure  
Sea Level Pressure 29.75 in    
Wind  
Wind Speed 16 mph (West)    
Max Wind Speed 26 mph    
Max Gust Speed 33 mph    
Visibility 8 miles    
Events Snow    
Averages and records for this station are not official NWS values.
T = Trace of Precipitation, MM = Missing Value Source: NWS Daily Summary

Daily Weather History Graph

Daily Weather History Graph

Search for Another Location

Airport or City:

Astronomy

Apr. 01, 2014 Rise Set
Actual Time 6:48 AM CDT 7:36 PM CDT
Civil Twilight 6:18 AM CDT 8:06 PM CDT
Nautical Twilight 5:42 AM CDT 8:41 PM CDT
Astronomical Twilight 5:05 AM CDT 9:19 PM CDT
Moon 7:45 AM CDT (4/1) 10:06 PM CDT (4/1)
Length of Visible Light 13h 47m
Length of Day
12h 47m
Waxing Crescent, 5% of the Moon is Illuminated
Apr 1
Waxing Crescent
Apr 7
First Quarter
Apr 15
Full
Apr 22
Last Quarter
Apr 29
New

Hourly Weather History & Observations

Time (CDT) Temp. Windchill Dew Point Humidity Pressure Visibility Wind Dir Wind Speed Gust Speed Precip Events Conditions
12:15 AM 35.6 °F 24.5 °F 32.0 °F 87% 29.41 in 10.0 mi SW 20.7 mph 27.6 mph N/A   Overcast
12:35 AM 33.8 °F 21.6 °F 30.2 °F 87% 29.42 in 10.0 mi SW 23.0 mph 27.6 mph N/A   Overcast
1:15 AM 32.0 °F 19.8 °F 30.2 °F 93% 29.43 in 10.0 mi SW 20.7 mph 24.2 mph N/A   Overcast
1:35 AM 32.0 °F 19.2 °F 28.4 °F 87% 29.44 in 4.0 mi SW 23.0 mph 29.9 mph N/A   Overcast
1:55 AM 30.2 °F 17.4 °F 28.4 °F 93% 29.44 in 4.0 mi SSW 20.7 mph 25.3 mph N/A   Overcast
2:15 AM 30.2 °F 19.3 °F 28.4 °F 93% 29.44 in 7.0 mi SW 15.0 mph - N/A   Overcast
2:35 AM 30.2 °F 18.1 °F 28.4 °F 93% 29.44 in 5.0 mi SSW 18.4 mph - N/A   Overcast
2:55 AM 30.2 °F 19.3 °F 28.4 °F 93% 29.45 in 4.0 mi SSW 15.0 mph - N/A   Overcast
3:15 AM 30.2 °F 21.3 °F 28.4 °F 93% 29.46 in 3.0 mi SSW 10.4 mph - N/A   Light Freezing Rain
3:35 AM 30.2 °F 20.8 °F 28.4 °F 93% 29.46 in 3.0 mi SSW 11.5 mph 18.4 mph N/A   Light Freezing Rain
3:55 AM 30.2 °F 19.8 °F 28.4 °F 93% 29.46 in 3.0 mi SSW 13.8 mph 18.4 mph N/A Snow Light Snow
4:15 AM 28.4 °F 16.6 °F 26.6 °F 93% 29.46 in 4.0 mi SSW 16.1 mph - N/A   Overcast
4:35 AM 28.4 °F 17.0 °F 26.6 °F 93% 29.46 in 3.0 mi SW 15.0 mph - N/A   Overcast
4:55 AM 28.4 °F 18.0 °F 26.6 °F 93% 29.47 in 10.0 mi SW 12.7 mph - N/A   Overcast
5:15 AM 28.4 °F 19.1 °F 26.6 °F 93% 29.47 in 10.0 mi SW 10.4 mph - N/A   Overcast
5:35 AM 28.4 °F 19.1 °F 26.6 °F 93% 29.48 in 4.0 mi SW 10.4 mph - N/A   Overcast
5:55 AM 28.4 °F 20.4 °F 26.6 °F 93% 29.49 in 3.0 mi SW 8.1 mph - N/A Snow Light Snow
6:15 AM 28.4 °F 21.2 °F 26.6 °F 93% 29.50 in 3.0 mi SW 6.9 mph - N/A Snow Light Snow
6:35 AM 28.4 °F 20.4 °F 26.6 °F 93% 29.51 in 4.0 mi SW 8.1 mph - N/A   Overcast
6:55 AM 26.6 °F 14.3 °F 23.0 °F 86% 29.53 in 10.0 mi NW 16.1 mph - N/A   Overcast
7:15 AM 24.8 °F 11.9 °F 21.2 °F 86% 29.56 in 10.0 mi NW 16.1 mph - N/A   Overcast
7:35 AM 23.0 °F 7.6 °F 19.4 °F 86% 29.58 in 10.0 mi WNW 21.9 mph 29.9 mph N/A   Overcast
7:55 AM 21.2 °F 6.4 °F 17.6 °F 86% 29.60 in 10.0 mi NW 18.4 mph 21.9 mph N/A   Overcast
8:15 AM 21.2 °F 8.9 °F 17.6 °F 86% 29.61 in 10.0 mi WNW 12.7 mph 21.9 mph N/A   Overcast
8:35 AM 19.4 °F 5.0 °F 15.8 °F 86% 29.63 in 10.0 mi WNW 16.1 mph 28.8 mph N/A   Overcast
8:55 AM 19.4 °F 5.0 °F 14.0 °F 80% 29.65 in 7.0 mi WNW 16.1 mph 31.1 mph N/A Snow Light Snow
9:15 AM 19.4 °F 7.2 °F 14.0 °F 80% 29.66 in 5.0 mi WNW 11.5 mph 19.6 mph N/A Snow Light Snow
9:35 AM 19.4 °F 6.0 °F 14.0 °F 80% 29.68 in 2.5 mi WNW 13.8 mph 26.5 mph N/A Snow Light Snow
9:55 AM 19.4 °F 4.5 °F 14.0 °F 80% 29.69 in 2.5 mi WNW 17.3 mph 24.2 mph N/A Snow Light Snow
10:15 AM 19.4 °F 2.5 °F 12.2 °F 74% 29.71 in 1.5 mi WNW 23.0 mph 31.1 mph N/A Snow Light Snow
10:35 AM 19.4 °F 3.6 °F 12.2 °F 74% 29.72 in 4.0 mi WNW 19.6 mph 28.8 mph N/A   Haze
10:55 AM 19.4 °F 6.0 °F 14.0 °F 80% 29.74 in 3.0 mi WNW 13.8 mph 24.2 mph N/A Snow Light Snow
11:15 AM 19.4 °F 5.5 °F 12.2 °F 74% 29.75 in 5.0 mi WNW 15.0 mph 25.3 mph N/A Snow Light Snow
11:35 AM 19.4 °F 4.5 °F 14.0 °F 80% 29.76 in 2.5 mi NW 17.3 mph 27.6 mph N/A Snow Light Snow
11:55 AM 19.4 °F 4.5 °F 14.0 °F 80% 29.78 in 2.0 mi WNW 17.3 mph 23.0 mph N/A Snow Light Snow
12:15 PM 21.2 °F 6.8 °F 15.8 °F 80% 29.80 in 1.8 mi WNW 17.3 mph 26.5 mph N/A Snow Light Snow
12:35 PM 21.2 °F 6.0 °F 15.8 °F 80% 29.82 in 3.0 mi West 19.6 mph 27.6 mph N/A Snow Light Snow
12:55 PM 21.2 °F 3.9 °F 15.8 °F 80% 29.83 in 4.0 mi West 26.5 mph 33.4 mph N/A Snow Light Snow
1:15 PM 23.0 °F 8.0 °F 15.8 °F 74% 29.84 in 7.0 mi WNW 20.7 mph 31.1 mph N/A Snow Light Snow
1:35 PM 24.8 °F 11.5 °F 17.6 °F 74% 29.84 in 10.0 mi West 17.3 mph 26.5 mph N/A   Overcast
1:55 PM 26.6 °F 11.7 °F 17.6 °F 69% 29.84 in 10.0 mi West 24.2 mph 31.1 mph N/A   Overcast
2:15 PM 26.6 °F 13.4 °F 15.8 °F 64% 29.85 in 10.0 mi WNW 18.4 mph 26.5 mph N/A   Mostly Cloudy
2:35 PM 26.6 °F 13.1 °F 17.6 °F 69% 29.86 in 10.0 mi WNW 19.6 mph 25.3 mph N/A   Scattered Clouds
2:55 PM 28.4 °F 16.6 °F 17.6 °F 64% 29.86 in 10.0 mi WNW 16.1 mph - N/A   Clear
3:15 PM 28.4 °F 16.6 °F 17.6 °F 64% 29.86 in 10.0 mi WNW 16.1 mph 20.7 mph N/A   Clear
3:35 PM 28.4 °F 16.6 °F 19.4 °F 69% 29.87 in 10.0 mi WNW 16.1 mph 24.2 mph N/A   Clear
3:55 PM 30.2 °F 18.9 °F 19.4 °F 64% 29.88 in 10.0 mi West 16.1 mph - N/A   Clear
4:15 PM 30.2 °F 18.9 °F 17.6 °F 60% 29.89 in 10.0 mi West 16.1 mph 21.9 mph N/A   Clear
4:35 PM 30.2 °F 19.3 °F 19.4 °F 64% 29.89 in 10.0 mi West 15.0 mph 24.2 mph N/A   Clear
4:55 PM 30.2 °F 20.2 °F 19.4 °F 64% 29.91 in 10.0 mi West 12.7 mph 17.3 mph N/A   Clear
5:15 PM 30.2 °F 18.5 °F 19.4 °F 64% 29.91 in 10.0 mi West 17.3 mph 20.7 mph N/A   Clear
5:35 PM 30.2 °F 19.3 °F 19.4 °F 64% 29.92 in 10.0 mi WNW 15.0 mph - N/A   Clear
5:55 PM 30.2 °F 20.2 °F 19.4 °F 64% 29.92 in 10.0 mi WNW 12.7 mph - N/A   Clear
6:15 PM 30.2 °F 19.3 °F 19.4 °F 64% 29.94 in 10.0 mi West 15.0 mph - N/A   Clear
6:35 PM 30.2 °F 20.2 °F 19.4 °F 64% 29.95 in 10.0 mi West 12.7 mph - N/A   Clear
6:55 PM 30.2 °F 20.8 °F 19.4 °F 64% 29.96 in 10.0 mi WNW 11.5 mph - N/A   Clear
7:15 PM 30.2 °F 20.8 °F 19.4 °F 64% 29.97 in 10.0 mi West 11.5 mph - N/A   Clear
7:35 PM 28.4 °F 20.4 °F 19.4 °F 69% 29.98 in 10.0 mi WSW 8.1 mph - N/A   Clear
7:55 PM 28.4 °F 18.5 °F 19.4 °F 69% 29.99 in 10.0 mi West 11.5 mph - N/A   Clear
8:15 PM 28.4 °F 19.7 °F 19.4 °F 69% 30.00 in 10.0 mi West 9.2 mph - N/A   Clear
8:35 PM 26.6 °F 19.1 °F 19.4 °F 74% 30.01 in 10.0 mi West 6.9 mph - N/A   Clear
8:55 PM 26.6 °F 19.1 °F 19.4 °F 74% 30.02 in 10.0 mi West 6.9 mph - N/A   Clear
9:15 PM 26.6 °F 17.5 °F 19.4 °F 74% 30.02 in 10.0 mi West 9.2 mph - N/A   Clear
9:35 PM 26.6 °F 19.1 °F 17.6 °F 69% 30.03 in 10.0 mi West 6.9 mph - N/A   Clear
9:55 PM 24.8 °F 16.1 °F 17.6 °F 74% 30.03 in 10.0 mi West 8.1 mph - N/A   Clear
10:15 PM 24.8 °F 16.1 °F 17.6 °F 74% 30.04 in 10.0 mi West 8.1 mph - N/A   Clear
10:35 PM 24.8 °F 16.1 °F 17.6 °F 74% 30.05 in 10.0 mi West 8.1 mph - N/A   Clear
10:55 PM 23.0 °F 13.1 °F 17.6 °F 80% 30.05 in 10.0 mi WNW 9.2 mph - N/A   Clear
11:15 PM 24.8 °F 17.9 °F 17.6 °F 74% 30.06 in 10.0 mi WNW 5.8 mph - N/A   Clear
11:35 PM 23.0 °F 17.0 °F 17.6 °F 80% 30.07 in 10.0 mi WNW 4.6 mph - N/A   Clear
11:55 PM 23.0 °F 17.0 °F 17.6 °F 80% 30.08 in 10.0 mi WNW 4.6 mph - N/A   Clear